• Join FlightAware (Why Join?)
  • Login
  • US Flag 
05:00AM EDT


 

Airport Tracker/Info


-or-


 

Live Flight TrackerFlight Track Log ✈ N498QS ✈ 06-Apr-2013 ✈ KBQK - KBQK

Flight Track Log - Related Links

Times and Time Zones

All times are in EDT time to prevent confusion due to time zone crossing. See the N498QS flight status page for this flight to view local times or setup timezone preferences in your user account.

Time Position Orientation Groundspeed Altitude Reporting Facility
EDT Latitude Longitude Course Direction KTS MPH feet Rate Location/Type
08:18AM 31.2608 -81.4683 85° East 67 77 200  Level Jacksonville Center
08:19AM 31.2625 -81.4442 85° East 73 84 500 1,380 Climbing Jacksonville Center
08:22AM 31.3686 -81.4181 12° North 349 402 5,600 1,920 Climbing Jacksonville Center
08:23AM 31.4500 -81.3950 14° North 260 299 8,000 1,200 Climbing Jacksonville Center
08:24AM 31.5186 -81.3742 15° North 259 298 8,000 480 Level Jacksonville Center
08:25AM 31.5914 -81.3561 12° North 259 298 9,000 1,500 Climbing Jacksonville Center
08:26AM 31.6664 -81.3328 15° North 264 304 11,000 1,500 Climbing Jacksonville Center
08:27AM 31.7433 -81.3119 13° North 278 320 12,000 480 Climbing Jacksonville Center
08:28AM 31.8244 -81.2886 14° North 315 362 12,000 540 Level Jacksonville Center
08:29AM 31.9325 -81.2597 13° North 351 404 13,100 2,400 Climbing Jacksonville Center
08:30AM 32.0283 -81.2336 13° North 352 405 16,800 3,300 Climbing Jacksonville Center
08:31AM 32.1261 -81.2072 13° North 352 405 19,700 2,820 Climbing Jacksonville Center
08:32AM 32.2306 -81.2078 360° North 358 412 22,500 1,620 Climbing Jacksonville Center
08:33AM 32.3372 -81.2206 354° North 382 440 23,000 240 Climbing Jacksonville Center
08:34AM 32.4186 -81.2314 354° North 349 402 23,000  Level Jacksonville Center
08:35AM 32.5086 -81.2419 354° North 303 349 23,000  Level Jacksonville Center
08:36AM 32.5944 -81.2553 353° North 329 379 23,000  Level Jacksonville Center
08:37AM 32.7114 -81.2681 355° North 371 427 23,100 1,440 Climbing Jacksonville Center
08:38AM 32.8222 -81.2858 352° North 389 448 25,900 2,880 Climbing Jacksonville Center
08:39AM 32.9311 -81.3036 352° North 394 453 28,900 2,700 Climbing Jacksonville Center
08:40AM 33.0419 -81.3214 352° North 394 453 31,400 2,220 Climbing Jacksonville Center
08:41AM 33.1258 -81.3572 340° North 389 448 33,400 1,920 Climbing Jacksonville Center
08:42AM 33.2331 -81.4200 334° Northwest 389 448 35,300 2,100 Climbing Jacksonville Center
08:43AM 33.3317 -81.4781 334° Northwest 389 448 37,700 2,160 Climbing Jacksonville Center
08:44AM 33.4425 -81.4911 354° North 381 438 39,700 1,440 Climbing Jacksonville Center
08:45AM 33.5511 -81.4994 356° North 381 438 40,600 360 Climbing Jacksonville Center
08:46AM 33.6703 -81.5050 358° North 403 464 40,500 -60 Descending Jacksonville Center
08:47AM 33.7589 -81.4086 42° Northeast 393 452 40,500 -60 Level Jacksonville Center
08:48AM 33.7111 -81.2572 111° Southeast 334 384 40,400 -60 Descending Jacksonville Center
08:49AM 33.5686 -81.2275 170° South 315 362 40,400 -900 Level Jacksonville Center
08:50AM 33.4250 -81.2400 184° South 425 489 38,700 -1,920 Descending Jacksonville Center
08:51AM 33.2811 -81.2600 187° South 462 532 36,600 -2,220 Descending Jacksonville Center
08:52AM 33.1353 -81.2753 185° South 508 585 34,300 -2,760 Descending Jacksonville Center
08:53AM 32.9728 -81.2931 185° South 539 620 31,100 -2,880 Descending Jacksonville Center
08:54AM 32.8308 -81.3078 185° South 534 615 28,600 -2,580 Descending Jacksonville Center
08:55AM 32.6933 -81.3228 185° South 515 593 26,000 -2,340 Descending Jacksonville Center
08:56AM 32.5619 -81.3397 186° South 485 558 24,000 -1,140 Descending Jacksonville Center
08:57AM 32.4431 -81.3517 185° South 476 548 23,800 -1,680 Descending Jacksonville Center
08:58AM 32.2950 -81.3614 183° South 487 560 20,700 -3,180 Descending Jacksonville Center
08:59AM 32.1761 -81.3758 186° South 456 525 17,500 -3,420 Descending Jacksonville Center
09:00AM 32.0575 -81.3875 185° South 436 502 13,900 -3,240 Descending Jacksonville Center
09:01AM 31.9469 -81.3992 185° South 417 480 11,100 -1,500 Descending Jacksonville Center
09:02AM 31.8531 -81.4081 185° South 386 444 11,000 -120 Descending Jacksonville Center
09:03AM 31.7467 -81.4169 184° South 356 410 10,900 -720 Descending Jacksonville Center
09:04AM 31.6717 -81.4281 187° South 329 379 9,600 -1,620 Descending Jacksonville Center
09:05AM 31.5861 -81.4342 183° South 292 336 7,700 -1,980 Descending Jacksonville Center
09:06AM 31.5194 -81.4400 184° South 263 303 5,700 -2,040 Descending Jacksonville Center